[[{"header":{"parameterUnit":"m.s-1","parameterCategory":1,"la1":30.2991,"la2":30.254,"lo1":-89.0895,"lo2":-89.0444,"dy":0.0017,"dx":0.0017,"nx":28,"ny":28,"refTime":"2025-12-19T09:00:00:Z","depth":0,"parameterNumber":2,"parameterNumberName":"U-component_of_WINDS"},"data":[0,0,0,0,0,0,0,0,0,0,0,0,0,0,0,0,0,0,0,0,0,0,0,0,0,0,0,0,0,0,0,0,0,0,0,0,0,0,0,0,0,0,0,0,0,0,0,0,0,0,0,0,0,0,0,0,0,0,-3.1201,-3.1202,0,-3.1227,-3.1228,-3.1228,-3.113,-3.1127,-3.1124,-3.1122,-3.1148,-3.1151,-3.1154,0,0,0,0,0,0,0,0,0,0,0,0,0,-3.1067,-3.107,-3.1201,-3.1202,-3.1202,-3.1227,-3.1228,-3.1228,-3.1131,-3.1127,-3.1124,-3.112,-3.1147,-3.1151,-3.1155,0,0,0,0,0,0,0,0,0,0,0,0,0,-3.1113,-3.1071,-3.1201,-3.1157,-3.1153,-3.1227,-3.1228,-3.1228,-3.1131,-3.1127,-3.1123,-3.1119,-3.1145,-3.115,-3.1155,-3.1274,0,0,-3.1171,-3.1173,0,0,0,0,0,0,0,0,-3.111,-3.1118,-3.1163,-3.116,-3.1156,-3.1171,-3.119,-3.1243,-3.1132,-3.114,-3.1121,-3.1116,-3.1159,-3.1163,-3.1177,-3.1275,-3.1276,-3.1171,-3.1174,-3.1177,-3.1178,0,0,0,0,0,0,0,-3.1107,-3.1116,-3.1212,-3.1164,-3.1159,-3.1135,-3.1137,-3.1199,-3.1173,-3.1139,-3.1132,-3.1136,-3.1156,-3.1172,-3.1177,-3.1277,-3.1171,-3.1176,-3.1179,-3.1181,-3.1473,-3.1477,0,0,0,0,0,0,-3.111,-3.1114,-3.1211,-3.1212,-3.1122,-3.1141,-3.1143,-3.117,-3.1172,-3.1168,-3.114,-3.1131,-3.1166,-3.1171,-3.1177,-3.1316,-3.1177,-3.1181,-3.1184,-3.1468,-3.1474,-3.1479,0,0,0,0,0,0,-3.1108,-3.112,-3.121,-3.1161,-3.1171,-3.1148,-3.118,-3.1173,-3.1189,-3.1173,-3.1168,-3.1161,-3.1163,-3.117,-3.1251,-3.1316,-3.1184,-3.1188,-3.1463,-3.147,-3.1476,-3.1595,0,0,0,0,0,0,-3.1104,-3.1119,-3.1164,-3.1163,-3.1174,-3.1283,-3.1184,-3.1177,-3.1198,-3.1188,-3.1192,-3.1188,-3.116,-3.1243,-3.1256,-3.132,-3.1192,-3.1457,-3.1466,-3.1474,-3.1585,-3.1605,-3.1622,0,0,0,0,0,-3.11,-3.1197,-3.1167,-3.1179,-3.123,-3.1287,-3.1293,-3.1258,-3.1204,-3.1249,-3.1239,-3.1188,-3.1307,-3.1253,-3.1265,-3.1333,-3.1452,-3.1463,-3.1474,-3.1577,-3.1601,-3.1622,0,0,0,0,0,0,-3.1206,-3.1196,-3.1163,-3.1262,-3.1276,-3.127,-3.1326,-3.1285,-3.1315,-3.1304,-3.1259,-3.1261,-3.1349,-3.1349,-3.1288,-3.1447,-3.137,-3.1384,-3.1444,-3.1467,-3.1486,-3.1483,-3.1196,0,0,0,0,0,-3.1241,-3.1288,-3.1277,-3.1366,-3.1374,-3.1349,-3.1373,-3.1345,-3.1357,-3.1363,-3.1358,-3.1372,-3.1412,-3.144,-3.1476,-3.1585,-3.1584,-3.1637,-3.1656,-3.1671,-3.1683,-3.174,-3.1764,-3.1514,-3.1514,-3.1513,0,0,-3.1313,-3.1314,-3.1346,-3.1387,-3.1394,-3.1444,-3.1355,-3.1411,-3.1448,-3.1371,-3.1446,-3.1444,-3.1457,-3.1552,-3.1593,-3.1554,-3.1752,-3.1685,-3.1697,-3.1701,-3.1754,-3.1777,-3.1798,-3.1521,-3.152,-3.1518,0,0,-3.1471,-3.1477,-3.1551,-3.156,-3.1573,-3.1556,-3.1574,-3.1574,-3.157,-3.1645,-3.1588,-3.1631,-3.1701,-3.1713,-3.1728,-3.189,-3.1845,-3.1903,-3.2,-3.2057,-3.2076,-3.2093,-3.2151,-3.2172,-3.1916,-3.1916,-3.1916,0,-3.156,-3.1633,-3.1594,-3.1655,-3.1674,-3.1607,-3.1682,-3.1693,-3.1717,-3.1732,-3.1688,-3.1775,-3.1779,-3.1875,-3.1915,-3.193,-3.1949,-3.1902,-3.2077,-3.2093,-3.2109,-3.2163,-3.2185,-3.1923,-3.1922,-3.1921,-3.1921,0,-3.1741,-3.1793,-3.1851,-3.1876,-3.1902,-3.197,-3.1941,-3.1972,-3.1942,-3.193,-3.2007,-3.2009,-3.2045,-3.2065,-3.2037,-3.2158,-3.2133,-3.2084,-3.2005,-3.214,-3.2191,-3.2211,-3.1933,-3.193,-3.1928,-3.1927,0,0,-3.1966,-3.1969,-3.1991,-3.2001,-3.2011,-3.205,-3.2114,-3.2149,-3.2176,-3.2195,-3.2248,-3.2309,-3.2263,-3.228,-3.2252,-3.2302,-3.243,-3.2246,-3.2245,-3.228,-3.2563,-3.26,-3.2625,-3.24,-3.2404,-3.2407,-3.2562,0,-3.212,-3.2231,-3.2198,-3.2309,-3.2356,-3.2293,-3.2349,-3.2361,-3.2351,-3.2389,-3.2378,-3.2422,-3.2359,-3.2369,-3.2415,-3.2405,-3.2486,-3.2393,-3.2448,-3.2451,-3.2447,-3.2651,-3.269,-3.2837,-3.2582,-3.2585,-3.2587,0,-3.2315,-3.2342,-3.2458,-3.2459,-3.2477,-3.2528,-3.2557,-3.2595,-3.2607,-3.2596,-3.2616,-3.2578,-3.2641,-3.2563,-3.2649,-3.2586,-3.2607,-3.2606,-3.261,-3.2614,-3.2527,-3.266,-3.2882,-3.2904,-3.2618,-3.2616,-3.2613,0,-3.2467,-3.2532,-3.2609,-3.262,-3.2624,-3.2661,-3.2664,-3.2672,-3.2695,-3.2721,-3.2735,-3.2768,-3.2786,-3.2812,-3.2783,-3.2729,-3.2874,-3.2793,-3.2866,-3.2867,-3.2899,-3.2897,-3.3128,-3.2914,-3.2914,-3.2913,-3.2913,0,-3.2642,-3.2716,-3.2677,-3.2725,-3.2805,-3.2767,-3.2847,-3.2843,-3.2851,-3.2896,-3.2844,-3.2888,-3.2848,-3.2889,-3.2867,-3.2941,-3.295,-3.2943,-3.2936,-3.2947,-3.2948,-3.2959,-3.2948,-3.2919,-3.2918,-3.2917,-3.2916,0,-3.2825,-3.2803,-3.2883,-3.288,-3.2881,-3.294,-3.2937,-3.2981,-3.2967,-3.3026,-3.3037,-3.3016,-3.3061,-3.3035,-3.3081,-3.3066,-3.3163,-3.3143,-3.3159,-3.3153,-3.3228,-3.3221,-3.3473,-3.3504,-3.3271,-3.3273,-3.3275,0,-3.2938,-3.2993,-3.2996,-3.3023,-3.303,-3.3074,-3.3097,-3.3061,-3.3088,-3.3106,-3.3148,-3.3188,-3.3218,-3.3292,-3.3281,-3.3316,-3.3295,-3.3382,-3.33,-3.331,-3.3296,-3.3293,-3.3298,-3.3398,-3.34,-3.3403,-3.3404,0,-3.3141,-3.3127,-3.3163,-3.3195,-3.3224,-3.3248,-3.3267,-3.3292,-3.3257,-3.3289,-3.3334,-3.3358,-3.3405,-3.3445,-3.3475,-3.3478,-3.3436,-3.343,-3.3449,-3.346,-3.3467,-3.3464,-3.3203,-3.3424,-3.3422,-3.3421,-3.342,-3.3419,-3.3292,-3.3337,-3.3347,-3.3388,-3.3399,-3.3418,-3.3459,-3.3451,-3.3488,-3.3523,-3.35,-3.3554,-3.3564,-3.36,-3.3608,-3.3649,-3.3614,-3.3642,-3.3648,-3.3655,-3.3665,-3.3462,-3.3655,-3.3654,-3.3653,-3.3653,-3.3652,0,-3.3491,-3.3494,-3.3533,-3.3561,-3.3594,-3.3552,-3.3571,-3.3601,-3.3648,-3.3662,-3.3693,-3.3745,-3.3784,-3.3776,-3.3812,-3.3846,-3.3828,-3.3856,-3.3853,-3.3854,-3.3694,-3.3674,-3.3871,-3.3871,-3.3871,-3.3871,-3.3871,-3.3871,-3.3599,-3.3674,-3.3661,-3.3741,-3.3743,-3.3795,-3.381,-3.3827,-3.3837,-3.3898,-3.393,-3.3925,-3.393,-3.3965,-3.3999,-3.3996,-3.4011,-3.4047,-3.4037,-3.3887,-3.3866,-3.3845,-3.3826,-3.4051,-3.4051,-3.4193,-3.4194,-3.4195]},{"header":{"parameterUnit":"m.s-1","parameterCategory":1,"la1":30.2991,"la2":30.254,"lo1":-89.0895,"lo2":-89.0444,"dy":0.0017,"dx":0.0017,"nx":28,"ny":28,"refTime":"2025-12-19T09:00:00:Z","depth":0,"parameterNumber":3,"parameterNumberName":"V-component_of_WINDS"},"data":[0,0,0,0,0,0,0,0,0,0,0,0,0,0,0,0,0,0,0,0,0,0,0,0,0,0,0,0,0,0,0,0,0,0,0,0,0,0,0,0,0,0,0,0,0,0,0,0,0,0,0,0,0,0,0,0,0,0,0.2625,0.2624,0,0.2541,0.254,0.2539,0.2475,0.2475,0.2474,0.2473,0.2385,0.2383,0.2381,0,0,0,0,0,0,0,0,0,0,0,0,0,0.2729,0.2727,0.2625,0.2624,0.2623,0.2541,0.254,0.2539,0.2475,0.2475,0.2474,0.2473,0.2385,0.2383,0.2381,0,0,0,0,0,0,0,0,0,0,0,0,0,0.2668,0.2727,0.2625,0.2582,0.2577,0.2541,0.254,0.2538,0.2475,0.2474,0.2474,0.2473,0.2386,0.2383,0.2381,0.2381,0,0,0.2372,0.2371,0,0,0,0,0,0,0,0,0.2672,0.2664,0.2589,0.2585,0.2579,0.2518,0.2544,0.2486,0.2476,0.2514,0.2473,0.2472,0.243,0.2423,0.2409,0.2377,0.2373,0.2372,0.237,0.2369,0.2369,0,0,0,0,0,0,0,0.2676,0.2668,0.2592,0.2588,0.2582,0.2565,0.2556,0.2533,0.2477,0.251,0.2506,0.2497,0.2427,0.2412,0.2407,0.2372,0.2372,0.237,0.2368,0.2367,0.2336,0.2337,0,0,0,0,0,0,0.2687,0.2671,0.2594,0.2589,0.2624,0.2564,0.2553,0.2538,0.2478,0.2468,0.2497,0.2494,0.2417,0.241,0.2403,0.24,0.2369,0.2367,0.2365,0.2335,0.2336,0.2337,0,0,0,0,0,0,0.269,0.2681,0.2598,0.2629,0.2617,0.2563,0.2547,0.2537,0.2522,0.2468,0.2457,0.2493,0.2416,0.2407,0.2387,0.2396,0.2366,0.2363,0.2334,0.2336,0.2337,0.2394,0,0,0,0,0,0,0.2693,0.2682,0.2682,0.263,0.2616,0.2584,0.2547,0.2536,0.2518,0.2513,0.2461,0.2451,0.2415,0.2392,0.2385,0.2392,0.2361,0.2333,0.2335,0.2336,0.2391,0.2397,0.2402,0,0,0,0,0,0.2697,0.2701,0.2683,0.2674,0.2615,0.2585,0.2577,0.2536,0.2519,0.2518,0.2483,0.2453,0.2396,0.239,0.2382,0.2388,0.2333,0.2334,0.2336,0.2388,0.2395,0.2401,0,0,0,0,0,0,0.2755,0.2693,0.2672,0.266,0.2628,0.2574,0.2572,0.2544,0.2516,0.2512,0.2461,0.245,0.2436,0.241,0.2404,0.2385,0.2361,0.2361,0.2403,0.2409,0.2415,0.2421,0.2359,0,0,0,0,0,0.2767,0.2748,0.2695,0.2689,0.2674,0.2626,0.2612,0.2583,0.2547,0.2533,0.2497,0.2463,0.2438,0.2422,0.2396,0.2387,0.2374,0.2387,0.2392,0.2397,0.2398,0.2391,0.2396,0.2343,0.2343,0.2343,0,0,0.279,0.2754,0.2745,0.27,0.2672,0.2653,0.2615,0.2597,0.2582,0.253,0.251,0.2482,0.2441,0.2427,0.2419,0.2405,0.2409,0.2399,0.2404,0.2401,0.2393,0.2398,0.2403,0.2344,0.2344,0.2344,0,0,0.2823,0.2795,0.2787,0.276,0.2718,0.2686,0.2685,0.2635,0.2615,0.2593,0.2554,0.2536,0.2493,0.2465,0.2446,0.247,0.244,0.2462,0.2491,0.2485,0.2489,0.2492,0.25,0.2504,0.2463,0.2463,0.2463,0,0.2857,0.2829,0.2786,0.277,0.2751,0.2704,0.2695,0.2671,0.2623,0.2611,0.2596,0.2542,0.2511,0.2489,0.2495,0.2481,0.2477,0.2468,0.2492,0.2495,0.2497,0.2505,0.2508,0.2466,0.2466,0.2466,0.2465,0,0.2872,0.2853,0.2851,0.2807,0.2788,0.2776,0.2731,0.2716,0.2689,0.2659,0.2638,0.2599,0.2564,0.2557,0.253,0.2532,0.2524,0.2502,0.2475,0.2506,0.2512,0.2514,0.2471,0.247,0.2469,0.2468,0,0,0.2939,0.2873,0.2873,0.2852,0.2803,0.2787,0.2773,0.274,0.2728,0.2697,0.2683,0.2648,0.2627,0.2605,0.2574,0.2569,0.259,0.2547,0.2545,0.2556,0.259,0.2607,0.2611,0.2571,0.2571,0.2571,0.2593,0,0.2965,0.2937,0.2899,0.2884,0.2865,0.2821,0.2808,0.2777,0.2748,0.2727,0.2695,0.2671,0.2645,0.2631,0.2624,0.259,0.2596,0.2587,0.2557,0.2556,0.2568,0.2614,0.2632,0.2654,0.2595,0.2596,0.2596,0,0.299,0.2963,0.2946,0.29,0.289,0.288,0.2846,0.2828,0.2791,0.277,0.2746,0.2713,0.2695,0.2672,0.2646,0.2641,0.2626,0.2607,0.2607,0.2602,0.2578,0.261,0.2661,0.2664,0.2599,0.2599,0.2599,0,0.3041,0.2999,0.2984,0.2968,0.2913,0.2907,0.2883,0.2846,0.2828,0.2799,0.2787,0.2756,0.2738,0.2715,0.2674,0.2661,0.2652,0.2626,0.2634,0.2635,0.2634,0.2634,0.2682,0.2625,0.2625,0.2625,0.2625,0,0.3073,0.3065,0.3006,0.2997,0.2986,0.2941,0.2932,0.2904,0.2871,0.2855,0.2815,0.28,0.2748,0.2727,0.2695,0.2678,0.2671,0.2653,0.2645,0.2657,0.2659,0.2646,0.2643,0.2626,0.2626,0.2625,0.2625,0,0.3127,0.3088,0.3068,0.3018,0.3006,0.3,0.2957,0.2946,0.2915,0.2895,0.2888,0.2839,0.2813,0.277,0.2731,0.2709,0.2698,0.2684,0.2711,0.2706,0.2716,0.2716,0.2757,0.276,0.2702,0.2703,0.2703,0,0.315,0.3143,0.3093,0.308,0.3058,0.3037,0.302,0.2976,0.2959,0.2917,0.2911,0.2881,0.2855,0.2815,0.2776,0.2746,0.273,0.2747,0.2725,0.2738,0.273,0.2731,0.273,0.2752,0.2753,0.2753,0.2754,0,0.3195,0.3176,0.3153,0.3123,0.3103,0.3077,0.3049,0.3041,0.299,0.2973,0.2946,0.2927,0.2887,0.2858,0.2823,0.2797,0.2767,0.2761,0.2761,0.2773,0.2789,0.278,0.2724,0.276,0.276,0.2759,0.2759,0.2758,0.3234,0.3225,0.3189,0.3164,0.3139,0.3114,0.3101,0.3069,0.3047,0.3012,0.2987,0.2962,0.2925,0.2874,0.2851,0.283,0.2816,0.2816,0.2816,0.2817,0.2822,0.2793,0.2823,0.2823,0.2822,0.2822,0.2822,0,0.3276,0.3251,0.3229,0.3192,0.3172,0.3147,0.3115,0.31,0.3079,0.3047,0.3023,0.2992,0.2964,0.2923,0.2892,0.2883,0.2868,0.2876,0.2876,0.287,0.2835,0.2838,0.2888,0.2888,0.2888,0.2888,0.2888,0.2888,0.3296,0.3281,0.3258,0.3229,0.3203,0.3179,0.3163,0.3139,0.3114,0.3082,0.3059,0.3033,0.2997,0.2963,0.2936,0.2924,0.2915,0.2927,0.2911,0.2879,0.2873,0.2867,0.287,0.2925,0.2925,0.2948,0.2948,0.2948]}]]